User: anonymous   Login
Location: Gipe Farm
(40.9466°N, 95.5370°W)
Time: 14:27:00
(UTC-05:00)
Language:

Cosmos 1842 - Orbit

View from above orbital plane
View from above orbital plane
View from above satellite
View from above satellite

Ground track
Ground track

The orbit data is extracted from the following two-line orbital elements,

1 17911U 87038A   15116.42072579  .00004327  00000-0  27202-3 0  9997
2 17911 082.4995 238.1176 0013409 071.8605 288.4083 15.08923839523652
Epoch (UTC): 26 April 2015 10:05:50
Eccentricity: 0.0013409
inclination: 82.4995°
perigee height: 530 km
apogee height: 549 km
right ascension of ascending node: 238.1176°
argument of perigee: 71.8605°
revolutions per day: 15.08923839
mean anomaly at epoch: 288.4083°
orbit number at epoch: 52365

The dashed part of the orbit path shows where the satellite is in the earth's shadow,  

DLR